Content
SEND FEEDBACK

Daily
Averages
Monthly
Summary
United States of America

CLARKSBURG, WEST VIRGINIA


Home > North America > United States > West Virginia
Elevation: 1209 feet     Latitude: 39 17N     Longitude: 080 13W

WEATHER
 
SELECT A DAY
Number of Records: 205,111;   Date Range: 1/1/95 - 11/26/14
 
SHARE

PRINT THIS DATA

[ ← Previous Day ]
WEATHER ALMANAC - JULY 22, 2014
[ Next Day → ]
[ °C ]   °F
Weather ElementAverageHighLow
Temperature77.2 °F88 °F (3:53 pm)68 °F (4:53 am)
Dewpoint66.7 °F69.1 °F (9:53 pm)66 °F (1:53 am)
Humidity71.8 %93 % (4:53 am)48 % (3:53 pm)
Barometer30.08 in30.15 in (8:53 am)30.03 in (5:53 pm)
Wind Speed2.4 mph8.1 mph (1:53 pm)
Weather ElementAverage
Visibility9.9 mi
Wind DirectionENE (71.4 °)

Weather ElementTotal
Precipitation---
Cooling Degree Days13 (Base 65)
Growing Degree Days28 (Base 50)
Averaged from 22 records on July 22, 2014
WEATHER CONDITIONS BREAKOUT
WIND DIRECTION BREAKOUT
WEATHER BY HOUR - JULY 22, 2014
[ °C ]   °F
Local TimeTemperatureDewpointHumidityBarometerVisibilityWind DirectionWind SpeedGust SpeedPrecipitationEventsConditions
1:53 AM70.0 °F66.0 °F87 %30.09 in10.0 miCalmClear
2:53 AM69.1 °F66.0 °F90 %30.10 in10.0 miCalmScattered Clouds
3:53 AM69.1 °F66.0 °F90 %30.09 in10.0 miCalmMostly Cloudy
4:53 AM68.0 °F66.0 °F93 %30.10 in10.0 miCalmScattered Clouds
5:53 AM68.0 °F66.0 °F93 %30.11 in9.0 miCalmMostly Cloudy
6:53 AM68.0 °F66.0 °F93 %30.12 in8.0 miCalmClear
7:53 AM73.0 °F66.0 °F79 %30.14 in10.0 miCalmClear
8:53 AM73.9 °F66.0 °F76 %30.15 in10.0 miSE (140°)3.5 mphClear
10:53 AM79.0 °F66.9 °F66 %30.13 in10.0 miSSW (200°)6.9 mphPartly Cloudy
11:53 AM81.0 °F66.9 °F62 %30.11 in10.0 miVariable4.6 mphScattered Clouds
12:53 PM82.9 °F66.9 °F58 %30.09 in10.0 miVariable4.6 mphMostly Cloudy
1:53 PM84.9 °F66.9 °F55 %30.08 in10.0 miSW (220°)8.1 mphPartly Cloudy
2:53 PM84.0 °F66.9 °F56 %30.06 in10.0 miSW (220°)4.6 mphScattered Clouds
3:53 PM88.0 °F66.0 °F48 %30.05 in10.0 miWNW (290°)5.8 mphPartly Cloudy
4:53 PM87.1 °F66.0 °F49 %30.04 in10.0 miCalmScattered Clouds
5:53 PM86.0 °F66.0 °F51 %30.03 in10.0 miVariable3.5 mphPartly Cloudy
6:53 PM86.0 °F66.9 °F53 %30.03 in10.0 miWest (280°)4.6 mphPartly Cloudy
7:53 PM82.0 °F68.0 °F62 %30.03 in10.0 miSW (220°)6.9 mphClear
8:53 PM79.0 °F66.9 °F66 %30.03 in10.0 miCalmClear
9:53 PM75.9 °F69.1 °F79 %30.04 in10.0 miCalmClear
10:53 PM72.0 °F68.0 °F87 %30.04 in10.0 miCalmClear
11:53 PM72.0 °F68.0 °F87 %30.03 in10.0 miCalmClear
Hourly data recorded from KCKB, located miles away from Clarksburg, West Virginia







STORIES FROM OUR PARTNERS